GW4477 Weather Reports


time (UTC)temp
F
wind
direction
speed
knots
gust
knots
rain 1hr
in
rain 24hr
in
rain mn
in
humidity
%
barometer
mb
20260901104530 65 158 0.0 0.0 0.00 0.00 0.00 85 1018.1
20260901103032 65 342 0.0 0.0 0.00 0.00 0.00 85 1018.3
20260901101504 66 342 0.0 0.0 0.00 0.00 0.00 84 1018.4
20260901100003 66 342 0.0 1.7 0.00 0.00 0.00 84 1018.5
20260901094510 66 342 0.0 0.0 0.00 0.00 0.00 83 1018.5
20260901093003 67 342 0.0 1.7 0.00 0.00 0.00 81 1018.6
20260901091503 68 182 0.9 2.6 0.00 0.00 0.00 79 1018.4
20260901090008 70 321 0.0 1.7 0.00 0.00 0.00 75 1018.5
20260901084508 71 251 0.0 3.5 0.00 0.00 0.00 74 1018.5
20260901083003 70 214 0.0 0.9 0.00 0.00 0.00 78 1018.2
20260901081503 70 271 0.0 0.9 0.00 0.00 0.00 78 1018.2
20260901080005 69 214 0.9 3.5 0.00 0.00 0.00 81 1018.2
20260901074504 69 259 0.0 1.7 0.00 0.00 0.00 81 1018.2
20260901073024 69 250 0.0 1.7 0.00 0.00 0.00 82 1018.2
20260901071504 69 257 0.0 1.7 0.00 0.00 0.00 83 1018.1
20260901070006 69 246 0.0 1.7 0.00 0.00 0.00 82 1018.0
20260901064510 70 213 0.0 1.7 0.00 0.00 0.00 82 1017.8
20260901063007 70 195 0.0 1.7 0.00 0.00 0.00 80 1017.6
20260901061505 71 257 0.0 1.7 0.00 0.00 0.00 78 1017.5
20260901060006 71 238 0.0 1.7 0.00 0.00 0.00 75 1017.4
20260901054504 73 250 0.0 1.7 0.00 0.00 0.00 72 1017.4
20260901053006 74 205 0.0 1.7 0.00 0.00 0.00 69 1017.4
20260901051507 76 194 0.9 1.7 0.00 0.00 0.00 65 1017.4
20260901050007 77 194 0.0 1.7 0.00 0.00 0.00 62 1017.4
20260901044509 79 170 0.0 1.7 0.00 0.00 0.00 57 1017.4
20260901043009 80 221 0.0 1.7 0.00 0.00 0.00 53 1017.4
20260901041510 81 211 0.9 4.3 0.00 0.00 0.00 52 1017.4
20260901040009 82 195 0.0 3.5 0.00 0.00 0.00 51 1017.4
20260901034511 82 259 0.0 2.6 0.00 0.00 0.00 51 1017.7
20260901033016 80 256 0.0 1.7 0.00 0.00 0.00 54 1017.2
20260901031509 78 239 0.0 0.0 0.00 0.00 0.00 64 1017.1
20260901030012 78 239 0.0 1.7 0.00 0.00 0.00 67 1016.9
20260901024511 80 211 0.0 0.9 0.00 0.00 0.00 66 1016.7
20260901023013 80 211 0.0 0.0 0.00 0.00 0.00 62 1016.0
20260901021506 81 211 0.0 0.0 0.00 0.00 0.00 59 1015.6
20260901020011 81 211 0.0 0.0 0.00 0.00 0.00 58 1015.1
20260901014515 82 211 0.0 0.0 0.00 0.00 0.00 59 1014.7
20260901013004 84 211 0.0 0.0 0.00 0.00 0.00 56 1015.0
20260901011506 87 211 0.0 0.0 0.00 0.00 0.00 54 1015.0
20260901010009 88 211 0.0 0.0 0.00 0.00 0.00 50 1014.9
20260901004517 90 211 0.0 0.0 0.00 0.00 0.00 47 1014.8
20260901003016 92 211 0.0 0.9 0.00 0.00 0.00 44 1014.8
20260901001504 94 188 0.0 2.6 0.00 0.00 0.00 39 1014.6
20260901000008 94 180 1.7 3.5 0.00 0.00 0.00 37 1014.7
20260831234516 95 210 0.9 4.3 0.00 0.00 0.00 36 1014.8
20260831233017 95 212 2.6 7.0 0.00 0.00 0.00 35 1014.7
20260831231521 96 188 1.7 6.1 0.00 0.00 0.00 35 1014.8
20260831230009 96 198 1.7 5.2 0.00 0.00 0.00 36 1015.0
20260831224512 96 202 0.0 5.2 0.00 0.00 0.00 37 1015.1
20260831223019 96 219 1.7 6.1 0.00 0.00 0.00 38 1015.1
20260831221527 96 234 0.0 7.8 0.00 0.00 0.00 38 1015.1
20260831220027 96 135 2.6 3.5 0.00 0.00 0.00 38 1015.3
20260831214512 95 192 2.6 5.2 0.00 0.00 0.00 38 1015.5
20260831213016 95 209 2.6 4.3 0.00 0.00 0.00 39 1015.6
20260831211525 95 197 2.6 4.3 0.00 0.00 0.00 39 1015.9
20260831210028 96 251 0.9 3.5 0.00 0.00 0.00 43 1016.1
20260831204508 94 324 0.0 6.1 0.00 0.00 0.00 45 1016.4
20260831203018 93 202 0.0 3.5 0.00 0.00 0.00 44 1016.8
20260831201525 93 267 1.7 6.1 0.00 0.00 0.00 46 1017.1
20260831200032 92 179 0.9 4.3 0.00 0.00 0.00 45 1017.2
20260831194558 92 229 2.6 7.0 0.00 0.00 0.00 45 1017.4
20260831193010 92 207 0.0 3.5 0.00 0.00 0.00 50 1017.4
20260831191520 90 213 0.9 5.2 0.00 0.00 0.00 47 1017.6
20260831190025 90 202 0.9 3.5 0.00 0.00 0.00 49 1017.6
20260831184529 90 152 1.7 3.5 0.00 0.00 0.00 50 1017.9
20260831183035 89 87 0.9 2.6 0.00 0.00 0.00 51 1017.9
20260831181515 89 255 0.0 3.5 0.00 0.00 0.00 51 1017.9
20260831180026 88 101 0.0 2.6 0.00 0.00 0.00 53 1018.1
20260831174529 88 296 0.9 3.5 0.00 0.00 0.00 55 1018.2
20260831173029 87 360 0.9 3.5 0.00 0.00 0.00 55 1018.1
20260831171502 86 9 0.0 3.5 0.00 0.00 0.00 56 1018.3
20260831170005 86 327 0.0 3.5 0.00 0.00 0.00 59 1018.1
20260831164510 86 316 1.7 4.3 0.00 0.00 0.00 59 1018.1
20260831163007 86 302 0.0 4.3 0.00 0.00 0.00 56 1017.9
20260831161512 85 326 0.9 3.5 0.00 0.00 0.00 58 1017.8
20260831160003 84 201 0.0 2.6 0.00 0.00 0.00 57 1017.7
20260831154516 83 211 0.0 4.3 0.00 0.00 0.00 57 1017.6
20260831153010 82 183 2.6 5.2 0.00 0.00 0.00 58 1017.5
20260831151512 81 201 0.9 5.2 0.00 0.00 0.00 61 1017.4
20260831150016 80 199 2.6 6.1 0.00 0.00 0.00 63 1017.4
20260831144504 79 166 2.6 7.0 0.00 0.00 0.00 65 1017.5
20260831143007 78 171 3.5 6.1 0.00 0.00 0.00 67 1017.4
20260831141534 77 152 1.7 6.1 0.00 0.00 0.00 70 1017.4
20260831140027 75 164 4.3 7.0 0.00 0.00 0.00 75 1017.4
20260831134534 73 122 2.6 6.1 0.00 0.00 0.00 82 1017.2
20260831133007 72 119 1.7 7.0 0.00 0.00 0.00 85 1017.0
20260831131507 71 146 2.6 5.2 0.00 0.00 0.00 86 1017.0
20260831130010 70 142 1.7 3.5 0.00 0.00 0.00 86 1017.0
20260831124520 70 123 1.7 2.6 0.00 0.00 0.00 84 1016.8
20260831123026 70 169 0.0 5.2 0.00 0.00 0.00 83 1016.8
20260831121505 70 99 0.9 2.6 0.00 0.00 0.00 83 1016.6
20260831120010 70 86 0.0 3.5 0.00 0.00 0.00 82 1016.6
20260831114517 71 73 0.0 6.1 0.00 0.00 0.00 81 1016.4
20260831113024 71 144 1.7 7.0 0.00 0.00 0.00 80 1016.8
20260831111531 71 19 1.7 6.1 0.00 0.00 0.00 79 1016.7
20260831110017 72 139 1.7 6.1 0.00 0.00 0.00 79 1017.1